EW9523 Weather Reports


Display with metric or nautical units.
time (UTC)temp
F
wind
direction
speed
MPH
gust
MPH
rain 1hr
in
rain 24hr
in
rain mn
in
humidity
%
barometer
mb
20260502170112 54 155 1.0 3.0 0.00 0.00 0.00 94 1011.9
20260502164101 53 134 1.0 3.0 0.00 0.00 0.00 94 1012.0
20260502163057 53 136 0.0 2.0 0.00 0.00 0.00 94 1011.9
20260502162529 53 183 0.0 3.0 0.00 0.00 0.00 95 1011.9
20260502161054 53 225 1.0 3.0 0.00 0.00 0.00 95 1011.9
20260502152034 52 173 0.0 2.0 0.00 0.00 0.00 95 1011.3
20260502151025 52 215 1.0 3.0 0.00 0.00 0.00 96 1011.4
20260502122939 52 244 1.0 5.0 0.00 0.00 0.00 96 1010.4
20260502121940 52 90 0.0 1.0 0.00 0.00 0.00 96 1010.3
20260502120939 52 90 0.0 2.0 0.00 0.00 0.00 96 1010.5
20260502114932 52 202 0.0 2.0 0.00 0.00 0.00 96 1010.6
20260502113930 52 139 0.0 0.0 0.00 0.00 0.00 96 1010.5
20260502112928 52 139 0.0 2.0 0.00 0.00 0.00 95 1010.6
20260502112405 52 139 1.0 3.0 0.00 0.00 0.00 95 1010.7
20260502110927 52 99 1.0 4.0 0.00 0.00 0.00 95 1010.5
20260502110407 52 107 1.0 4.0 0.00 0.00 0.00 95 1010.5
20260502104928 52 109 2.0 4.0 0.00 0.00 0.00 95 1010.5
20260502103923 52 95 0.0 3.0 0.00 0.00 0.00 95 1010.8
20260502102923 52 184 1.0 3.0 0.00 0.00 0.00 95 1010.6
20260502101923 52 229 0.0 1.0 0.00 0.00 0.00 95 1010.6
20260502100923 52 146 0.0 3.0 0.00 0.00 0.00 95 1010.6
20260502091341 52 118 0.0 3.0 0.00 0.00 0.00 95 1011.1
20260502070759 53 121 0.0 0.0 0.00 0.00 0.00 92 1011.3
20260502065732 53 121 0.0 0.0 0.00 0.00 0.00 91 1011.3
20260502064733 53 121 0.0 1.0 0.00 0.00 0.00 91 1011.3
20260502063733 54 115 0.0 2.0 0.00 0.00 0.00 91 1011.4
20260502062722 54 115 0.0 1.0 0.00 0.00 0.00 91 1011.2
20260502061714 54 115 0.0 2.0 0.00 0.00 0.00 90 1011.3
20260502060714 55 115 0.0 1.0 0.00 0.00 0.00 89 1011.4
20260502060159 55 115 0.0 2.0 0.00 0.00 0.00 88 1011.5
20260502055600 55 120 0.0 2.0 0.00 0.00 0.00 88 1011.5
20260502053636 56 120 0.0 0.0 0.00 0.00 0.00 88 1011.5
20260502053110 56 120 0.0 2.0 0.00 0.00 0.00 87 1011.5
20260502051632 56 120 0.0 1.0 0.00 0.00 0.00 86 1011.4
20260502050600 57 120 0.0 2.0 0.00 0.00 0.00 86 1011.5
20260502045541 58 121 1.0 4.0 0.00 0.00 0.00 84 1011.6
20260502045014 58 145 0.0 2.0 0.00 0.00 0.00 83 1011.5
20260502043528 59 145 0.0 2.0 0.00 0.00 0.00 82 1011.4
20260502042512 60 92 1.0 3.0 0.00 0.00 0.00 81 1011.2
20260502041458 61 108 1.0 3.0 0.00 0.00 0.00 80 1011.2
20260502040454 62 169 1.0 5.0 0.00 0.00 0.00 79 1011.0
20260502035454 63 200 1.0 3.0 0.00 0.00 0.00 77 1010.9
20260502034452 63 118 1.0 3.0 0.00 0.00 0.00 75 1010.7
20260502033443 64 105 1.0 5.0 0.00 0.00 0.00 74 1010.7
20260502032917 65 105 2.0 6.0 0.00 0.00 0.00 72 1010.5
20260502031927 66 96 2.0 6.0 0.00 0.00 0.00 70 1010.4
20260502030919 67 132 1.0 5.0 0.00 0.00 0.00 69 1010.3
20260502025436 68 93 2.0 6.0 0.00 0.00 0.00 68 1010.2
20260502024434 69 116 1.0 6.0 0.00 0.00 0.00 68 1010.2
20260502023928 69 118 2.0 6.0 0.00 0.00 0.00 65 1010.1
20260502022434 70 163 2.0 7.0 0.00 0.00 0.00 66 1010.1
20260502021426 71 150 2.0 4.0 0.00 0.00 0.00 64 1010.1
20260502020427 71 135 2.0 7.0 0.00 0.00 0.00 64 1010.1
20260502015902 72 119 3.0 10.0 0.00 0.00 0.00 63 1010.0
20260502014854 72 159 2.0 7.0 0.00 0.00 0.00 63 1010.0
20260502013416 73 107 4.0 13.0 0.00 0.00 0.00 62 1010.1
20260502012414 74 164 4.0 11.0 0.00 0.00 0.00 60 1010.0
20260502011414 76 156 4.0 12.0 0.00 0.00 0.00 60 1010.0
20260502010411 76 129 4.0 14.0 0.00 0.00 0.00 60 1009.9
20260502005411 77 166 3.0 11.0 0.00 0.00 0.00 61 1010.1
20260502004410 77 215 4.0 11.0 0.00 0.00 0.00 61 1010.2
20260502003407 78 113 3.0 10.0 0.00 0.00 0.00 59 1010.3
20260502002408 78 260 2.0 8.0 0.00 0.00 0.00 60 1010.2
20260502001410 78 87 4.0 12.0 0.00 0.00 0.00 58 1010.1
20260502000404 78 165 3.0 9.0 0.00 0.00 0.00 58 1010.1
20260501235846 78 116 5.0 13.0 0.00 0.00 0.00 60 1010.1
20260501234403 78 62 3.0 10.0 0.00 0.00 0.00 61 1010.3
20260501233400 78 112 4.0 13.0 0.00 0.00 0.00 58 1010.4
20260501232358 78 149 2.0 7.0 0.00 0.00 0.00 61 1010.4
20260501231358 78 150 4.0 9.0 0.00 0.00 0.00 58 1010.5
20260501230831 78 143 3.0 11.0 0.00 0.00 0.00 58 1010.7
20260501225355 77 175 4.0 13.0 0.00 0.00 0.00 61 1010.7
20260501224355 77 164 3.0 9.0 0.00 0.00 0.00 61 1010.9
20260501223352 77 121 3.0 10.0 0.00 0.00 0.00 61 1011.1
20260501222835 77 103 3.0 10.0 0.00 0.00 0.00 59 1011.3
20260501221350 78 173 2.0 7.0 0.00 0.00 0.00 59 1011.6
20260501220350 78 141 1.0 6.0 0.00 0.00 0.00 59 1011.7
20260501215347 77 198 3.0 11.0 0.00 0.00 0.00 62 1011.7
20260501214344 76 103 2.0 6.0 0.00 0.00 0.00 61 1011.7
20260501213344 76 146 3.0 9.0 0.00 0.00 0.00 61 1011.9
20260501212342 76 286 3.0 9.0 0.00 0.00 0.00 63 1011.9
20260501211340 75 168 3.0 9.0 0.00 0.00 0.00 62 1012.1
20260501210339 75 211 3.0 7.0 0.00 0.00 0.00 61 1012.1
20260501205338 75 164 2.0 7.0 0.00 0.00 0.00 63 1012.2
20260501204814 74 206 3.0 7.0 0.00 0.00 0.00 63 1012.1
20260501203336 74 95 2.0 6.0 0.00 0.00 0.00 65 1012.3
20260501202334 74 239 3.0 10.0 0.00 0.00 0.00 64 1012.4
20260501201335 73 90 3.0 7.0 0.00 0.00 0.00 65 1012.4
20260501200327 72 166 2.0 8.0 0.00 0.00 0.00 65 1012.6
20260501195327 72 142 3.0 7.0 0.00 0.00 0.00 66 1012.7
20260501194327 71 202 3.0 7.0 0.00 0.00 0.00 66 1012.8
20260501193327 71 134 3.0 7.0 0.00 0.00 0.00 67 1012.8
20260501192328 70 151 3.0 10.0 0.00 0.00 0.00 67 1013.1
20260501191813 70 103 2.0 9.0 0.00 0.00 0.00 68 1013.1
20260501190327 68 83 2.0 10.0 0.00 0.00 0.00 70 1013.1
20260501185327 67 146 3.0 7.0 0.00 0.00 0.00 72 1013.1
20260501184327 67 205 2.0 8.0 0.00 0.00 0.00 73 1013.3
20260501183327 66 92 2.0 5.0 0.00 0.00 0.00 76 1013.4
20260501182327 65 224 2.0 6.0 0.00 0.00 0.00 75 1013.3
20260501181810 64 55 2.0 5.0 0.00 0.00 0.00 78 1013.3
20260501180325 64 113 1.0 6.0 0.00 0.00 0.00 78 1013.5
20260501175315 63 128 1.0 4.0 0.00 0.00 0.00 80 1013.5
20260501174315 61 138 2.0 5.0 0.00 0.00 0.00 83 1013.5
20260501173317 60 192 2.0 10.0 0.00 0.00 0.00 86 1013.7
20260501172316 59 101 2.0 6.0 0.00 0.00 0.00 86 1013.6
20260501171315 58 142 1.0 4.0 0.00 0.00 0.00 89 1013.8